Tracking 19193 objects as of 24-Jun-2018
HD Live streaming from Space Station
objects crossing your sky now

AVUM DEB (ADAPTOR)

Track AVUM DEB (ADAPTOR) now!
10-day predictions


NORAD ID: 39162
Int'l Code: 2013-021D
Perigee: 671.6 km
Apogee: 807.8 km
Inclination: 98.8 °
Period: 99.5 minutes
Semi major axis: 7110 km
RCS: 3.997 m2 (large)
Launch date: May 7, 2013
Source: European Space Agency (ESA)
Launch site: FRENCH GUIANA (FRGUI)

Note: This is SATELLITE DEBRIS
aabbcc
Your satellite tracking list
Your tracking list is empty




NASA's NSSDC Master Catalog

Two Line Element Set (TLE):
1 39162U 13021D   18174.89039014 +.00000224 +00000-0 +70565-4 0  9998
2 39162 098.8487 343.6185 0095782 184.6720 175.3587 14.47888850270891
Source of the keplerian elements: AFSPC